Decatur, IL

6:38 AM CDT on August 30, 2016 (GMT -0500)
Decatur

Weather History for KDEC - February, 2012

Change the Weather History Date:

Wednesday, February 15, 2012

  Actual Average Record
Temperature  
Mean Temperature 37 °F 31 °F  
Max Temperature 41 °F 39 °F 31 °F (2016)
Min Temperature 32 °F 23 °F -4 °F (2014)
Degree Days  
Heating Degree Days 28 34  
Month to date heating degree days 463 537  
Since 1 July heating degree days 3211 3844  
Cooling Degree Days 0 0  
Month to date cooling degree days 0 0  
Year to date cooling degree days 0 0  
Moisture  
Dew Point 37 °F    
Average Humidity 93    
Maximum Humidity 100    
Minimum Humidity 85    
Precipitation  
Precipitation 0.08 in 0.07 in 0.11 in (2014)
Month to date precipitation 0.64 1.01  
Year to date precipitation 2.55 2.75  
Sea Level Pressure  
Sea Level Pressure 30.04 in    
Wind  
Wind Speed 8 mph (SSE)    
Max Wind Speed 20 mph    
Max Gust Speed 26 mph    
Visibility 5 miles    
Events Fog , Rain    
T = Trace of Precipitation, MM = Missing Value Source: NWS Daily Summary

Daily Weather History Graph

Daily Weather History Graph

Search for Another Location

Airport or City:

Trip Planner

Search our weather history database for the weather conditions in past years. The results will help you decide how hot, cold, wet, or windy it might be!

Date:

Astronomy

Feb. 15, 2012 Rise Set
Actual Time 6:48 AM CST 5:31 PM CST
Civil Twilight 6:20 AM CST 5:58 PM CST
Nautical Twilight 5:49 AM CST 6:30 PM CST
Astronomical Twilight 5:18 AM CST 7:01 PM CST
Moon 1:41 AM CST (2/15) 11:26 AM CST (2/15)
Length of Visible Light 11h 37m
Length of Day
10h 42m
Last Quarter, 38% of the Moon is Illuminated
Feb 15
Last Quarter
Feb 21
New
Feb 29
First Quarter
Mar 8
Full
Mar 14
Last Quarter

Hourly Weather History & Observations

Time (CST) Temp. Windchill Dew Point Humidity Pressure Visibility Wind Dir Wind Speed Gust Speed Precip Events Conditions
12:54 AM 32.0 °F 26.4 °F 30.0 °F 92% 30.07 in 7.0 mi South 5.8 mph - N/A   Mostly Cloudy
1:54 AM 32.0 °F 25.6 °F 30.9 °F 96% 30.08 in 7.0 mi SSE 6.9 mph - N/A   Scattered Clouds
2:54 AM 33.1 °F 26.1 °F 30.9 °F 92% 30.08 in 8.0 mi SSE 8.1 mph - N/A   Mostly Cloudy
3:54 AM 33.1 °F 26.1 °F 30.9 °F 92% 30.10 in 9.0 mi South 8.1 mph - N/A   Overcast
4:54 AM 33.1 °F 24.4 °F 30.9 °F 92% 30.09 in 7.0 mi SSE 11.5 mph - N/A   Mostly Cloudy
5:54 AM 33.8 °F 25.3 °F 32.0 °F 93% 30.07 in 7.0 mi SSE 11.5 mph - N/A   Scattered Clouds
6:54 AM 35.1 °F 29.3 °F 33.1 °F 92% 30.09 in 7.0 mi SSE 6.9 mph - N/A   Overcast
7:54 AM 35.1 °F 29.3 °F 34.0 °F 96% 30.11 in 5.0 mi SSE 6.9 mph - 0.00 in   Overcast
8:54 AM 37.0 °F 28.5 °F 35.1 °F 93% 30.09 in 6.0 mi SSE 13.8 mph - N/A   Mostly Cloudy
9:52 AM 39.2 °F 29.8 °F 35.6 °F 87% 30.06 in 8.0 mi South 18.4 mph 26.5 mph N/A   Mostly Cloudy
9:54 AM 39.0 °F 30.6 °F 36.0 °F 89% 30.08 in 8.0 mi South 15.0 mph 26.5 mph N/A   Mostly Cloudy
10:11 AM 41.0 °F 32.8 °F 37.4 °F 87% 30.06 in 10.0 mi South 16.1 mph 24.2 mph N/A   Overcast
10:31 AM 39.2 °F 30.8 °F 35.6 °F 87% 30.06 in 9.0 mi South 15.0 mph 24.2 mph N/A   Overcast
10:54 AM 39.9 °F 32.5 °F 37.0 °F 89% 30.08 in 9.0 mi South 12.7 mph - N/A   Mostly Cloudy
11:29 AM 41.0 °F 33.1 °F 37.4 °F 87% 30.07 in 10.0 mi South 15.0 mph - N/A   Mostly Cloudy
11:54 AM 39.9 °F 32.1 °F 37.0 °F 89% 30.08 in 9.0 mi South 13.8 mph - N/A   Overcast
12:08 PM 41.0 °F 34.7 °F 37.4 °F 87% 30.06 in 9.0 mi South 10.4 mph 19.6 mph N/A   Overcast
12:54 PM 41.0 °F 32.2 °F 37.9 °F 89% 30.06 in 10.0 mi South 18.4 mph - N/A   Overcast
1:08 PM 41.0 °F 33.9 °F 37.4 °F 87% 30.04 in 10.0 mi South 12.7 mph - N/A   Overcast
1:54 PM 39.9 °F 32.9 °F 37.9 °F 93% 30.05 in 8.0 mi South 11.5 mph - N/A   Overcast
2:54 PM 39.9 °F 33.4 °F 39.0 °F 97% 30.02 in 5.0 mi SSE 10.4 mph - 0.00 in   Overcast
3:54 PM 41.0 °F 36.4 °F 39.9 °F 96% 30.01 in 4.0 mi SE 6.9 mph - 0.00 in   Overcast
4:39 PM 39.2 °F 34.2 °F 39.2 °F 100% 30.00 in 2.5 mi SSE 6.9 mph - 0.02 in Rain Light Rain
4:54 PM 39.9 °F 35.8 °F 39.9 °F 100% 30.01 in 2.5 mi SE 5.8 mph - 0.03 in Rain Light Rain
5:30 PM 39.2 °F 33.6 °F 39.2 °F 100% 29.97 in 2.5 mi SE 8.1 mph - 0.00 in Rain Light Rain
5:54 PM 41.0 °F 36.4 °F 41.0 °F 100% 30.00 in 2.5 mi SSE 6.9 mph - 0.00 in   Overcast
6:01 PM 41.0 °F 38.0 °F 41.0 °F 100% 29.99 in 4.0 mi SSE 4.6 mph - N/A   Overcast
6:37 PM 39.2 °F 33.0 °F 39.2 °F 100% 29.97 in 2.5 mi SE 9.2 mph - N/A   Overcast
6:54 PM 39.9 °F 35.1 °F 39.9 °F 100% 29.99 in 3.0 mi SE 6.9 mph - N/A   Overcast
7:54 PM 39.9 °F 35.8 °F 39.9 °F 100% 30.01 in 2.5 mi ESE 5.8 mph - N/A   Overcast
8:34 PM 39.2 °F 37.0 °F 39.2 °F 100% 29.99 in 1.5 mi SSE 3.5 mph - N/A   Overcast
8:51 PM 41.0 °F 38.0 °F 41.0 °F 100% 29.99 in 0.8 mi SSE 4.6 mph - N/A   Overcast
8:54 PM 41.0 °F - 41.0 °F 100% 30.00 in 0.5 mi Calm Calm - N/A Fog Fog
9:12 PM 39.2 °F - 39.2 °F 100% 29.99 in 0.2 mi Calm Calm - N/A Fog Fog
9:54 PM 39.0 °F 35.7 °F 39.0 °F 100% 30.00 in 0.2 mi SE 4.6 mph - N/A Fog Fog
10:40 PM 39.2 °F 35.9 °F 39.2 °F 100% 29.98 in 0.5 mi SSE 4.6 mph - 0.01 in Fog , Rain Light Rain
10:54 PM 41.0 °F - 41.0 °F 100% 29.99 in 0.5 mi Calm Calm - 0.01 in Fog Fog
11:54 PM 39.9 °F - 39.9 °F 100% 29.99 in 0.5 mi Calm Calm - 0.04 in Fog , Rain Light Rain